Location: Gro�sch�nbrunn
(49.5760°N, 11.8868°E)
Time: 04:16:35
(UTC+00:00)

Cosmos 2285 Rocket - Pass Details

Date: 18 September 2020
Orbit: 970 x 1000 km, 74.0° (Epoch: 20 October)

Event Time Altitude Azimuth Distance (km) Brightness Sun altitude
Rises 19:32:48 0° 192° (SSW) 3,652 6.8 -21.6°
Reaches altitude 10° 19:35:20 10° 189° (S) 2,711 6.1 -21.9°
Maximum altitude 19:41:33 68° 108° (ESE) 1,052 3.9 -22.8°
Drops below altitude 10° 19:47:51 10° 28° (NNE) 2,746 6.4 -23.6°
Sets 19:50:25 0° 26° (NNE) 3,703 7.1 -24.0°
